Flag for Germany Weather past 2 weeks in Siegen, North Rhine-Westphalia, Germany

Now
57 °F

Clear.


Feels Like: 57 °F
Forecast: 46 / 70 °F
Wind: 2 mph from Northwest

Location: Hessen

Current Time: Oct 1, 2014 at 9:55:14 PM

Latest Report: Oct 1, 2014 at 9:20 PM


Visibility: 10 mi

Pressure: 30.36 "Hg

Humidity: 82%

Dew point: 52 °F

Location of SiegenLocation

Historic Weather in Siegen — Graph

°F

Siegen temperature yesterday

Maximum temperature yesterday: 61 °F (at 11:50 AM)
Minimum temperature yesterday: 55 °F (at 7:50 AM)
Average temperature yesterday: 59 °F

Past Weeks' High & Low Weather Summary

 TemperatureHumidityPressure
High68 °F (Sep 17, 3:20 PM)100% (Sep 17, 7:50 AM)30.39 "Hg (Sep 17, 7:50 AM)
Low41 °F (Sep 23, 7:50 AM)62% (Sep 23, 2:50 PM)29.86 "Hg (Sep 24, 5:20 PM)
Average57 °F87%30.12 "Hg
* Reported Sep 16 8:20 PM — Oct 1 8:20 PM, Siegen, Weather by CustomWeather, © 2014

Note: Actual official high and low records may vary slightly from our data, if they occured in-between our weather recording intervals... More about our weather records

Advertising

Siegen weather history for previous 24 hours

 ConditionsComfort  
Time TempWeatherWind HumidityBarometerVisibility
8:20 PM
Oct 1
57 °FClear.No wind82%30.36 "Hg10 mi
7:50 PM57 °FSunny.2 mph88%30.36 "Hg10 mi
7:20 PM59 °FSunny.5 mph77%30.36 "Hg10 mi
6:50 PM59 °FSunny.6 mph82%30.36 "Hg10 mi
6:20 PM61 °FSunny.5 mph77%30.33 "Hg10 mi
5:50 PM63 °FSunny.7 mph68%30.33 "Hg10 mi
5:20 PM63 °FPassing clouds.7 mph73%30.33 "HgN/A
4:50 PM63 °FPassing clouds.10 mph64%30.33 "HgN/A
4:20 PM63 °FScattered clouds.10 mph68%30.33 "HgN/A
3:50 PM64 °FScattered clouds.7 mph64%30.33 "HgN/A
3:20 PM63 °FPassing clouds.8 mph68%30.33 "HgN/A
2:50 PM64 °FPassing clouds.7 mph68%30.33 "HgN/A
2:20 PM63 °FPassing clouds.9 mph73%30.36 "HgN/A
1:50 PM63 °FPassing clouds.7 mph73%30.36 "HgN/A
1:20 PM63 °FPassing clouds.8 mph77%30.36 "HgN/A
12:50 PM63 °FScattered clouds.6 mph83%30.36 "HgN/A
12:20 PM61 °FScattered clouds.6 mph83%30.36 "HgN/A
11:50 AM61 °FPassing clouds.7 mph88%30.36 "HgN/A
11:20 AM61 °FSunny.7 mph88%30.36 "Hg10 mi
10:50 AM59 °FSunny.6 mph94%30.36 "Hg10 mi
10:20 AM59 °FPassing clouds.5 mph88%30.33 "HgN/A
9:50 AM59 °FFog.6 mph88%30.33 "Hg5 mi
9:20 AM57 °FFog.3 mph94%30.33 "Hg3 mi
8:50 AM57 °FFog.3 mph88%30.33 "Hg3 mi
8:20 AM55 °FFog.3 mph94%30.33 "Hg2 mi
7:50 AM55 °FFog.3 mph94%30.33 "Hg2 mi
7:20 AM55 °FFog.2 mph94%30.33 "Hg3 mi
9:50 PM
Sep 30
57 °FClear.2 mph100%30.33 "Hg6 mi
9:20 PM57 °FClear.5 mph100%30.33 "Hg5 mi
Weather by CustomWeather, © 2014

See weather overviewHow to use our weather pages